Regional Weather Roundup
Issued by NWS

Home | Current Version | Previous Version | Graphics & Text | Print | Product List | Glossary On
Versions: 1 2 3 4 5 6 7 8 9 10 11 12 13 14 15 16 17 18 19 20 21 22 23 24 25 26 27 28 29 30 31 32 33 34 35 36 37 38 39 40 41 42 43 44 45 46 47 48 49 50
000
ASUS43 KOAX 280710
RWRNE

WEATHER ROUNDUP FOR NEBRASKA
NATIONAL WEATHER SERVICE OMAHA NE
200 AM CDT THU JUL 28 2016

NOTES: SATELLITE DATA IS BEING USED TO AUGMENT CLOUD COVER ABOVE
       12000 FEET.
       "FAIR" INDICATES FEW OR NO CLOUDS BELOW 12,000 FEET WITH NO
       SIGNIFICANT WEATHER AND/OR OBSTRUCTIONS TO VISIBILITY.

  * THESE STATIONS DO NOT REPORT WEATHER SUCH AS RAIN...SNOW OR FOG.

NEZ001>004-019>022-054>056-280800-
NEBRASKA PANHANDLE

CITY           SKY/WX    TMP DP  RH WIND       PRES   REMARKS
SCOTTSBLUFF    CLOUDY    65  61  87 SE8       30.16R
ALLIANCE       CLOUDY    61  55  81 SE8       30.15S
CHADRON        PTCLDY    68  59  73 NE7       30.12S
KIMBALL        CLOUDY    62  62  97 S9        30.20F
SIDNEY         CLOUDY    63  59  87 S9        30.20R
$$

NEZ057>060-069>072-079>082-280800-
SOUTHWEST NEBRASKA

CITY           SKY/WX    TMP DP  RH WIND       PRES   REMARKS
NORTH PLATTE   PTCLDY    64  60  87 CALM      30.12R
IMPERIAL       CLOUDY    69  65  86 N7        30.16R
LEXINGTON      PTCLDY    66  61  84 NE6       30.10R
MCCOOK         PTCLDY    69  67  93 CALM      30.11R
OGALLALA       CLOUDY    67  58  73 CALM      30.18R
$$

NEZ005>010-023>029-035>040-094-280800-
NORTH CENTRAL NEBRASKA

CITY           SKY/WX    TMP DP  RH WIND       PRES   REMARKS
VALENTINE      CLEAR     59  56  89 MISG      30.12S
AINSWORTH      CLEAR     59  58  98 N3        30.12S
BROKEN BOW     CLEAR     61  60  97 CALM      30.08F
O`NEILL        CLOUDY    64  61  92 NW6       30.09R
ORD            CLEAR     61  58  90 W3        30.06S
THEDFORD       CLEAR     61  59  95 CALM      30.11F
$$

NEZ041-046>049-061>064-073>077-083>087-280800-
SOUTH CENTRAL NEBRASKA

CITY           SKY/WX    TMP DP  RH WIND       PRES   REMARKS
GRAND ISLAND   PTCLDY    67  61  81 CALM      30.04F
AURORA         MOCLDY    66  64  92 N3        30.03F
HASTINGS       CLEAR     67  64  90 N5        30.07R
HEBRON         CLEAR     71  66  85 CALM      30.02S
HOLDREGE       CLEAR     67  64  92 CALM      30.09R
KEARNEY *      CLEAR     66   9  10 N3        30.08R
YORK           PTCLDY    66  64  94 CALM      30.04S
$$

NEZ011>018-030>034-042>045-280800-
NORTHEAST NEBRASKA

CITY           SKY/WX    TMP DP  RH WIND       PRES   REMARKS
NORFOLK        CLOUDY    67  64  90 N3        30.03F
ALBION         CLOUDY    65  61  85 N3        30.05S
BLAIR          CLOUDY    73  69  85 N5        30.00R
FREMONT        CLOUDY    69  63  81 W5        30.01S
TEKAMAH        CLOUDY    72  68  87 N8        29.99S
WAYNE          CLOUDY    66  65  96 CALM      30.03F
$$

NEZ050>053-065>068-078-088>093-280800-
SOUTHEAST NEBRASKA

CITY           SKY/WX    TMP DP  RH WIND       PRES   REMARKS
LINCOLN        PTCLDY    71  65  81 N12       30.01S
OMAHA EPPLEY   CLOUDY    72  68  87 NW6       29.97S
BEATRICE       CLEAR     68  66  93 CALM      30.00S
FALLS CITY     CLEAR     72  70  93 NW3       29.95F
NEBRASKA CITY  CLEAR     72  72 100 CALM      29.97F
PLATTSMOUTH    PTCLDY    70  69  96 W5        29.98F
$$

NEZ044-045-051>053-067-280800-
OMAHA AREA

CITY           SKY/WX    TMP DP  RH WIND       PRES   REMARKS
OMAHA EPPLEY   CLOUDY    72  68  87 NW6       29.97S
BLAIR          CLOUDY    73  69  85 N5        30.00R
FREMONT        CLOUDY    69  63  81 W5        30.01S
MILLARD        MOCLDY    73  67  81 NW6       29.98S
OFFUTT AFB     CLOUDY    71  70  96 NW3       29.97S
PLATTSMOUTH    PTCLDY    70  69  96 W5        29.98F
WAHOO          FAIR      70  65  85 NW6       30.00F
$$




USA.gov is the U.S. government's official web portal to all federal, state and local government web resources and services.